Temperature
15 15 15 15 15 15 15 15 14 15 15 15 15 15 15 15 14 14 14 15 14 14 14 14 14 14 14 14 14 14 14 14 14 14 14 14 14 14 14 14 14 14 14
15 15 15 15 15 15 15 14 14 14 14 14 14 14 14 14 14 14 14 14 14 14 14 14 14 14 14 14 14 14 14 14 14 14 14 14 14 14 14 14 14 13 14
15 15 15 15 14 14 14 14 14 14 14 14 14 14 14 14 14 14 14 14 14 14 14 14 14 14 14 14 14 14 14 14 14 14 14 13 13 13 13 13 13 13 13
15 15 14 14 14 14 14 14 14 14 14 14 14 14 14 14 14 14 14 14 14 14 14 14 14 14 14 14 14 14 14 14 14 14 13 13 13 13 13 13 13 13 13
14 14 14 14 14 14 14 14 14 14 14 14 14 14 13 13 13 13 14 13 13 13 13 13 14 14 14 14 14 14 14 14 14 13 13 12 13 13 13 13 13 13 13
14 14 14 14 14 14 14 14 14 14 14 13 13 13 13 13 13 13 13 13 13 13 13 13 13 14 14 14 14 14 14 14 13 13 12 12 12 13 13 12 12 12 12
14 14 14 14 14 13 13 14 14 13 13 13 13 13 13 13 13 13 13 13 13 13 13 13 13 13 13 13 13 13 13 13 13 12 12 12 12 12 12 12 12 12 12
14 13 13 13 13 13 13 13 13 13 13 13 13 13 13 13 13 13 13 13 13 13 13 13 13 13 13 13 13 13 13 13 12 12 12 12 12 12 12 12 12 11 11
13 13 13 13 13 13 13 13 13 13 13 13 13 13 13 13 13 13 13 13 13 13 13 13 13 13 13 13 13 13 13 13 12 12 12 12 12 11 11 11 11 11 11
13 13 13 12 12 12 12 12 12 12 12 12 12 12 12 12 12 12 12 12 12 12 12 12 12 12 12 12 12 12 12 12 12 11 11 11 11 11 11 11 11 11 11
12 12 12 12 12 12 12 12 12 12 12 12 12 12 12 12 12 12 12 12 12 12 12 12 12 12 12 12 12 12 12 11 11 11 11 11 11 11 11 11 11 11 11
12 12 12 12 12 12 12 12 11 12 12 12 12 12 12 12 12 12 12 12 12 12 12 12 12 12 12 12 12 12 11 11 11 11 11 11 11 11 10 10 10 10 10
12 12 12 12 12 11 11 11 11 11 11 11 11 11 12 12 12 11 11 12 12 12 12 12 12 11 12 11 11 11 11 11 11 11 11 11 11 11 10 10 10 10 10
12 12 11 12 11 11 11 11 11 11 11 11 11 11 11 11 11 11 11 11 11 11 11 11 11 11 11 11 11 11 11 11 10 10 10 10 10 10 10 10 10 10 10
11 11 11 11 11 11 11 11 10 10 11 11 11 11 11 11 11 11 11 11 11 11 11 11 11 11 11 11 11 10 10 10 10 10 10 10 10 10 10 10 9 9 9
11 11 11 11 11 11 10 10 10 10 10 10 11 11 11 11 11 11 11 11 11 11 10 11 10 10 10 10 10 10 10 10 10 10 10 10 10 10 9 9 9 9 9
11 11 11 11 11 10 10 10 10 10 10 10 10 10 10 10 10 10 10 10 10 10 10 10 10 10 10 10 10 10 10 10 9 9 9 9 9 9 9 9 9 9 9
10 10 10 10 10 10 10 10 10 10 10 10 10 10 10 10 10 10 10 10 10 10 10 10 10 10 9 9 9 9 9 9 9 9 9 9 9 9 9 9 9 9 8
10 10 10 10 10 10 10 10 9 9 9 9 9 9 9 10 10 10 10 9 9 9 9 9 9 9 9 9 9 9 9 9 9 8 8 8 8 8 8 8 9 8 8
10 10 10 10 10 9 9 9 9 9 9 9 9 9 9 9 9 9 9 9 9 9 9 9 9 9 8 8 8 8 8 8 8 8 8 8 8 8 8 8 8 8 8
10 10 10 10 9 9 9 9 8 9 9 9 9 9 9 9 9 9 9 9 8 8 8 8 8 8 8 8 8 7 7 7 7 7 7 7 7 7 7 7 7 7 7
9 9 9 9 9 9 9 8 8 8 8 8 8 8 8 8 8 8 8 8 8 8 8 8 8 8 8 7 7 6 6 7 7 7 7 7 7 7 7 7 7 7 7
9 9 9 9 9 9 8 8 8 8 8 8 8 8 8 8 8 8 8 8 8 8 8 8 7 7 7 7 7 6 6 7 6 6 6 6 6 6 6 6 6 6 6
8 8 9 9 9 8 8 8 8 8 8 8 8 8 8 8 8 8 8 7 7 7 7 7 7 7 7 6 6 6 6 6 5 5 6 6 6 6 6 6 6 6 6
8 8 8 8 8 8 8 8 8 7 7 8 8 8 7 7 7 7 7 7 7 7 7 7 7 7 6 6 6 6 5 5 5 5 5 5 5 6 6 6 6 6 6
7 8 8 8 8 8 8 7 7 7 7 7 7 7 7 7 7 7 7 7 7 7 7 6 6 6 6 6 6 5 5 5 4 4 4 4 4 5 5 5 5 5 5
Wind_Speed
6 7 8 8 9 10 10 9 10 10 10 9 9 9 9 10 10 10 10 10 10 10 10 10 10 11 11 11 11 11 11 11 11 12 12 12 12 11 11 10 8 10 11
7 8 9 9 9 10 10 10 10 10 9 9 9 9 9 10 10 10 10 10 10 10 10 10 10 10 10 10 10 10 11 11 11 11 10 11 11 10 10 10 10 10 10
8 9 10 9 10 10 10 10 10 9 9 9 9 9 9 10 10 10 10 10 9 9 10 10 9 10 10 10 10 10 10 10 10 9 6 8 9 9 9 9 9 10 9
8 8 9 10 10 10 10 10 10 9 9 9 9 9 8 9 9 9 9 9 9 9 9 9 9 9 9 9 9 9 9 9 8 5 5 7 8 9 8 8 8 8 8
8 8 9 10 10 10 10 10 9 9 8 8 8 8 8 9 9 8 8 8 8 8 8 8 8 8 8 8 8 9 8 8 6 4 6 6 7 8 8 8 8 8 7
8 8 9 10 10 10 10 9 9 8 8 8 9 8 8 9 8 8 7 7 7 7 7 7 7 7 7 7 8 8 7 6 3 5 5 5 6 7 6 7 7 7 7
7 8 9 9 10 10 10 9 8 8 8 8 8 8 8 8 8 8 7 6 7 7 7 7 7 7 7 7 7 7 7 4 3 4 4 4 5 6 5 5 5 5 6
7 7 9 9 9 10 10 9 8 8 8 8 8 8 7 7 8 8 7 6 6 6 6 6 6 6 7 7 6 6 6 3 3 3 3 3 5 4 4 4 4 4 4
7 7 7 8 8 9 9 9 8 8 7 7 7 7 7 6 7 7 7 6 6 6 6 6 6 6 6 6 6 5 5 2 1 2 2 2 3 2 3 3 3 3 3
6 6 6 7 7 7 8 8 8 8 7 7 7 7 6 6 6 6 6 6 5 5 5 5 5 5 5 5 5 4 3 2 1 1 0 2 2 1 1 2 2 2 3
6 6 6 6 6 7 7 8 7 7 7 6 6 6 5 4 5 5 4 4 5 5 5 5 5 5 4 4 4 3 2 1 1 0 0 2 2 1 1 1 1 2 2
8 7 6 6 6 6 6 7 6 5 6 5 5 5 4 4 3 3 4 4 4 5 5 5 5 4 3 3 3 2 1 1 1 1 1 2 2 2 2 1 1 1 1
9 8 7 6 6 6 5 5 4 4 4 5 5 5 4 4 3 2 2 3 3 3 3 4 4 3 2 1 1 1 1 1 1 0 1 1 2 3 2 2 1 2 2
9 8 7 7 6 6 6 5 4 4 4 4 4 5 4 3 2 2 2 1 2 2 1 2 2 2 2 2 1 1 1 1 1 0 1 2 2 3 3 2 2 2 3
9 9 8 8 7 6 5 4 4 4 4 4 4 4 4 3 3 2 1 1 1 1 1 1 1 2 2 1 1 1 1 1 1 1 0 1 1 2 3 3 3 4 4
10 9 8 8 8 7 5 5 4 4 4 4 4 4 4 3 3 3 2 2 1 1 1 1 1 1 1 1 1 1 1 1 1 1 1 0 1 2 3 4 4 5 5
10 9 9 9 8 8 7 6 5 5 5 4 4 4 4 4 3 3 2 2 1 2 2 1 1 1 1 1 1 1 1 1 1 1 1 1 1 1 2 3 4 5 6
9 9 9 8 8 9 7 6 5 5 5 4 4 4 5 4 4 3 2 2 2 2 2 2 2 1 1 1 1 1 1 1 1 2 1 1 2 2 2 2 4 5 6
9 9 9 9 9 9 8 6 6 5 5 4 4 4 5 5 4 3 2 2 2 2 2 2 2 1 1 1 1 1 1 1 1 2 1 1 2 2 3 2 2 4 5
9 9 9 10 9 8 7 6 5 5 4 4 4 4 5 5 5 3 2 2 2 2 2 2 2 1 1 1 0 1 2 2 2 2 2 2 2 2 3 3 2 2 3
9 9 10 10 10 8 7 7 6 5 5 4 4 5 5 5 5 4 3 3 3 2 2 2 2 1 0 0 1 1 2 2 3 2 2 2 2 2 2 2 2 3 2
10 10 10 10 10 10 8 7 5 5 4 4 4 4 5 5 5 4 4 3 3 3 3 3 2 1 1 1 1 1 2 2 3 3 2 2 2 2 2 2 3 3 3
10 11 10 10 10 10 9 7 5 4 3 3 4 4 5 5 6 5 5 4 4 3 3 3 3 2 2 1 1 1 2 3 2 2 2 2 2 2 2 2 3 3 4
9 9 10 10 10 10 10 9 10 7 6 6 5 5 5 6 6 6 6 5 4 4 4 4 3 3 3 2 1 2 2 2 3 2 2 2 3 3 3 3 3 4 4
8 8 8 9 9 9 10 10 10 8 6 5 5 6 6 5 6 6 6 5 5 4 4 4 4 4 3 3 3 2 2 2 4 4 4 3 3 3 3 4 3 4 5
6 7 7 9 9 9 10 10 10 9 8 7 7 6 5 4 5 6 6 5 5 5 5 5 4 5 4 4 3 3 2 2 3 4 5 5 4 3 4 4 4 4 5
Wind_Direction
163 163 157 154 141 136 133 128 123 120 121 123 126 128 128 126 122 116 114 108 103 101 99 93 90 90 87 84 83 80 78 77 76 72 73 76 76 73 68 63 64 71 69
156 161 155 153 144 138 135 131 124 120 119 123 128 129 128 127 126 121 115 111 106 102 100 96 94 93 89 86 84 82 80 78 77 73 74 79 76 73 69 60 53 65 65
150 155 155 149 142 138 137 135 130 126 123 124 129 130 129 129 127 123 117 113 110 105 101 98 96 94 92 88 86 83 81 79 77 73 77 80 78 72 71 66 63 67 66
149 151 151 142 141 140 139 136 132 131 129 129 132 132 130 129 125 122 119 116 113 109 106 102 98 95 94 92 89 86 83 79 76 73 76 73 76 74 71 68 65 66 65
148 148 139 139 141 139 139 138 136 134 134 133 133 135 132 127 124 122 120 117 115 113 112 108 103 101 99 97 95 91 87 81 76 71 72 73 74 76 70 68 66 63 63
149 147 139 139 139 137 136 137 137 140 139 135 132 130 131 130 124 116 114 119 119 115 114 112 110 106 103 105 101 96 91 87 96 77 74 69 71 73 70 68 65 62 63
149 146 144 141 137 135 133 130 132 142 140 133 131 131 130 129 126 120 115 116 121 120 117 115 112 111 111 108 104 100 94 87 82 81 77 72 68 67 69 68 65 62 60
148 144 142 142 140 138 135 132 128 125 129 129 125 124 125 126 127 125 122 122 127 128 127 122 118 114 114 109 104 102 98 100 96 88 79 75 68 61 63 63 61 60 58
148 145 144 148 148 143 137 133 133 128 124 122 120 118 120 127 128 129 127 121 124 130 130 126 124 121 115 110 105 99 101 88 104 92 75 67 64 50 59 61 56 53 53
151 150 149 151 154 153 149 139 135 129 124 121 120 120 122 129 131 130 135 130 131 127 128 126 125 123 118 116 112 105 109 167 147 111 81 66 47 25 41 47 53 50 43
168 165 159 156 157 156 150 145 143 131 127 127 123 118 129 145 147 141 122 122 135 131 132 130 123 121 123 125 117 112 151 190 157 85 14 48 9 341 351 25 35 37 34
185 181 174 165 161 159 150 149 151 147 142 146 143 139 140 137 128 125 104 106 123 127 139 134 126 133 157 152 142 165 188 203 183 146 62 30 334 318 318 347 11 8 14
192 186 182 173 170 164 155 154 151 145 144 148 144 142 143 135 126 123 121 122 128 151 164 147 148 160 165 159 174 184 220 243 220 192 71 32 320 318 319 321 339 341 346
196 192 187 178 176 172 162 158 158 153 153 150 149 149 151 142 137 131 127 133 138 149 157 160 163 163 167 177 189 196 218 234 243 295 36 34 324 315 313 311 332 336 329
201 197 191 185 181 174 167 163 164 164 165 158 156 156 161 159 159 150 141 127 130 126 140 168 178 173 174 181 193 208 222 235 230 231 30 51 343 325 326 319 322 321 319
204 199 192 189 186 178 176 173 173 173 166 165 165 162 171 169 166 165 162 152 150 143 159 199 194 191 204 200 207 224 239 251 247 234 254 25 30 335 328 327 320 319 313
206 200 195 191 190 187 185 180 174 174 175 173 169 170 173 175 174 173 169 169 168 168 180 192 177 188 203 201 214 241 260 262 264 266 277 293 311 343 329 323 322 323 316
210 203 196 191 192 192 190 184 179 178 180 180 174 173 178 179 179 177 180 179 175 177 180 185 186 199 203 223 247 269 282 284 284 281 281 296 305 307 319 324 318 319 318
211 205 198 193 193 193 189 184 179 177 181 183 182 180 179 183 188 189 186 182 178 179 184 186 187 205 214 224 259 286 288 270 271 270 255 279 301 301 298 317 323 326 321
212 206 202 196 193 188 183 179 176 177 179 184 187 186 182 181 185 185 176 176 178 185 184 186 176 183 207 214 252 284 276 261 255 262 266 271 283 286 285 289 292 309 319
209 205 200 197 192 185 182 184 185 187 184 186 187 188 188 185 183 185 179 180 185 186 193 187 179 170 194 267 251 264 253 242 246 264 267 268 271 280 278 283 288 295 300
207 205 200 196 194 190 189 188 192 186 190 188 184 188 188 187 184 188 188 188 188 187 187 184 177 207 220 243 253 257 248 230 219 253 252 264 274 270 278 287 289 293 301
206 203 199 195 192 191 187 181 172 169 167 177 186 189 190 190 190 190 192 192 190 191 192 191 194 202 208 227 265 254 247 250 282 219 243 259 272 288 288 288 285 286 292
206 199 195 193 190 189 187 185 184 191 195 199 193 190 186 191 197 196 194 194 192 194 195 194 197 204 199 206 231 259 277 292 268 262 235 253 276 279 281 284 281 282 286
205 195 192 189 188 188 190 192 194 199 199 190 186 186 188 190 198 199 196 195 194 196 197 193 193 201 204 209 213 229 251 266 266 264 273 277 276 276 279 278 277 280 282
200 192 188 186 188 189 191 194 199 199 193 186 189 191 192 192 196 198 198 198 200 199 196 198 195 200 204 209 213 216 231 243 249 256 267 277 282 287 286 277 271 276 279
Height
1518 1519 1520 1522 1523 1525 1526 1527 1528 1529 1529 1530 1531 1532 1532 1533 1533 1533 1534 1534 1534 1534 1534 1534 1534 1534 1534 1533 1533 1533 1533 1533 1533 1533 1533 1532 1532 1532 1532 1532 1533 1533 1532
1517 1519 1520 1522 1523 1524 1526 1527 1528 1528 1529 1530 1531 1532 1532 1533 1533 1534 1534 1534 1534 1535 1535 1535 1535 1535 1534 1534 1534 1534 1534 1534 1534 1534 1534 1533 1533 1533 1533 1533 1533 1533 1533
1517 1519 1520 1522 1523 1524 1525 1527 1527 1528 1529 1530 1531 1532 1532 1533 1534 1534 1534 1535 1535 1535 1535 1535 1535 1535 1535 1535 1535 1535 1535 1535 1535 1535 1535 1535 1534 1534 1534 1534 1534 1534 1534
1517 1518 1520 1521 1523 1524 1525 1526 1527 1528 1529 1530 1531 1531 1532 1533 1533 1534 1534 1535 1535 1535 1535 1536 1536 1536 1535 1535 1535 1535 1535 1535 1535 1535 1536 1536 1536 1535 1535 1534 1534 1534 1534
1517 1518 1520 1521 1523 1524 1525 1526 1527 1528 1529 1529 1530 1531 1532 1532 1533 1534 1534 1535 1535 1535 1536 1536 1536 1536 1536 1536 1535 1535 1535 1536 1536 1536 1537 1537 1536 1536 1535 1535 1534 1534 1534
1517 1518 1519 1521 1522 1524 1525 1526 1527 1528 1528 1529 1530 1531 1531 1532 1533 1534 1534 1535 1535 1536 1536 1536 1536 1536 1536 1536 1536 1535 1536 1536 1536 1537 1537 1537 1537 1536 1536 1535 1535 1535 1535
1516 1518 1519 1521 1522 1523 1524 1525 1526 1527 1528 1529 1529 1530 1531 1532 1533 1533 1534 1534 1535 1535 1536 1536 1536 1536 1536 1536 1536 1536 1536 1536 1537 1537 1537 1537 1537 1536 1536 1536 1535 1535 1535
1516 1517 1518 1520 1522 1523 1524 1525 1526 1527 1527 1528 1529 1529 1530 1531 1532 1532 1533 1534 1534 1535 1535 1535 1535 1535 1535 1535 1535 1536 1536 1536 1537 1537 1537 1537 1536 1536 1536 1536 1535 1535 1535
1515 1516 1518 1519 1521 1522 1523 1524 1525 1526 1527 1527 1528 1529 1529 1530 1531 1531 1532 1533 1533 1534 1535 1535 1535 1535 1535 1535 1535 1535 1536 1536 1537 1537 1537 1537 1536 1536 1536 1535 1535 1535 1534
1514 1515 1516 1518 1519 1521 1522 1523 1524 1525 1526 1527 1527 1528 1528 1529 1530 1531 1531 1532 1532 1533 1534 1534 1534 1534 1534 1534 1534 1535 1535 1535 1536 1536 1536 1536 1535 1535 1535 1535 1535 1534 1534
1512 1513 1515 1516 1518 1519 1521 1522 1523 1524 1525 1526 1526 1527 1528 1529 1529 1530 1530 1531 1531 1532 1533 1533 1533 1534 1534 1534 1534 1534 1534 1535 1535 1535 1535 1535 1535 1535 1534 1534 1534 1533 1533
1510 1511 1513 1514 1516 1517 1519 1520 1521 1522 1523 1524 1525 1526 1526 1527 1528 1528 1529 1529 1530 1531 1532 1532 1532 1533 1533 1533 1533 1533 1533 1533 1534 1534 1534 1534 1534 1534 1533 1533 1533 1532 1532
1508 1509 1511 1512 1514 1515 1516 1518 1519 1520 1521 1522 1523 1524 1525 1525 1526 1527 1527 1528 1528 1529 1530 1531 1531 1531 1532 1532 1532 1532 1532 1532 1532 1532 1532 1532 1532 1532 1532 1532 1531 1531 1530
1505 1507 1508 1510 1511 1513 1514 1515 1517 1518 1519 1520 1521 1522 1523 1524 1524 1525 1526 1526 1527 1527 1528 1529 1529 1530 1530 1530 1530 1530 1531 1531 1531 1530 1530 1530 1530 1530 1530 1530 1530 1529 1529
1502 1504 1505 1507 1509 1510 1512 1513 1514 1516 1516 1518 1519 1520 1521 1522 1522 1523 1524 1524 1525 1525 1526 1527 1527 1528 1528 1529 1529 1529 1529 1529 1529 1528 1528 1528 1528 1528 1528 1528 1527 1527 1527
1499 1501 1502 1504 1506 1508 1509 1511 1512 1513 1514 1515 1516 1517 1518 1519 1520 1521 1522 1522 1523 1523 1524 1524 1525 1526 1526 1527 1527 1527 1527 1527 1526 1526 1527 1526 1526 1526 1526 1526 1525 1525 1524
1495 1497 1499 1501 1503 1505 1506 1508 1510 1511 1512 1513 1514 1515 1516 1517 1518 1519 1519 1520 1521 1521 1522 1523 1523 1523 1524 1524 1525 1525 1525 1524 1524 1524 1524 1524 1524 1524 1523 1523 1523 1522 1522
1491 1493 1495 1497 1499 1501 1503 1505 1507 1508 1509 1510 1511 1512 1513 1514 1515 1516 1517 1518 1518 1519 1520 1520 1521 1521 1521 1522 1522 1522 1522 1522 1522 1522 1522 1522 1522 1521 1521 1520 1520 1519 1519
1487 1489 1491 1493 1495 1498 1500 1502 1503 1505 1506 1507 1508 1509 1510 1511 1512 1513 1514 1515 1516 1517 1517 1518 1518 1519 1519 1519 1520 1520 1520 1520 1520 1520 1520 1519 1519 1519 1518 1517 1517 1516 1516
1483 1485 1487 1489 1492 1494 1496 1498 1500 1501 1502 1504 1505 1506 1507 1509 1510 1511 1512 1512 1513 1514 1514 1515 1515 1516 1517 1517 1517 1517 1517 1517 1517 1517 1517 1517 1516 1516 1515 1515 1514 1513 1512
1478 1480 1482 1484 1487 1489 1491 1493 1495 1497 1499 1500 1501 1503 1504 1506 1507 1508 1509 1510 1510 1511 1512 1512 1513 1513 1514 1514 1515 1515 1514 1514 1514 1514 1514 1514 1514 1513 1513 1512 1511 1510 1509
1473 1476 1478 1480 1482 1485 1487 1490 1492 1494 1495 1497 1498 1500 1501 1503 1504 1505 1506 1507 1508 1508 1509 1509 1510 1511 1511 1512 1513 1513 1513 1514 1512 1511 1511 1511 1511 1510 1509 1509 1508 1507 1506
1468 1470 1473 1475 1478 1481 1484 1486 1488 1490 1492 1493 1495 1496 1498 1500 1501 1502 1503 1504 1505 1505 1506 1507 1507 1508 1508 1509 1510 1512 1512 1511 1510 1509 1508 1508 1507 1507 1506 1505 1505 1504 1503
1464 1467 1469 1471 1474 1477 1480 1482 1484 1486 1488 1489 1491 1493 1495 1496 1498 1499 1500 1501 1502 1502 1503 1504 1504 1505 1505 1506 1507 1508 1509 1509 1509 1506 1505 1505 1504 1503 1503 1502 1501 1500 1500
1461 1463 1465 1468 1470 1473 1476 1478 1480 1483 1485 1487 1488 1490 1492 1493 1495 1496 1497 1498 1498 1499 1500 1500 1501 1502 1502 1503 1504 1504 1505 1505 1505 1505 1502 1501 1501 1500 1499 1498 1498 1497 1496
1457 1459 1461 1464 1466 1469 1472 1474 1476 1479 1481 1483 1485 1486 1488 1489 1491 1492 1494 1495 1495 1496 1497 1497 1498 1498 1499 1500 1500 1501 1501 1502 1501 1501 1500 1498 1497 1497 1496 1495 1494 1493 1492